Gelephu Airport


Codes: VQGP/GLU
Name: Gelephu Airport
City: Gelephu
Country: Bhutan
Elevation: 980 ft.
Wikipedia:

Photos at Gelephu Airport


   Photos courtesy of SpottingLog. You can add your own sightings and photos by signing up for a free trial today.



No photos found.

Weather at Gelephu Airport


Time (UTC)DescriptionTempratureWindCloud coverageVisibilityPressureHumidity
17-Jun-2024 06:00Moderate Rain28°C4 mph, S98%4207m1005hPa88%
17-Jun-2024 09:00Moderate Rain28°C2 mph, SW99%10000m1004hPa90%
17-Jun-2024 12:00Moderate Rain27°C2 mph, NE99%10000m1002hPa92%
17-Jun-2024 15:00Light Rain24°C4 mph, N92%10000m1004hPa95%
17-Jun-2024 18:00Moderate Rain24°C2 mph, N96%10000m1004hPa95%
17-Jun-2024 21:00Heavy Intensity Rain24°C2 mph, NW100%7991m1001hPa98%
18-Jun-2024 00:00Heavy Intensity Rain24°C4 mph, NW100%2834m1003hPa98%
18-Jun-2024 03:00Heavy Intensity Rain24°C0 mph, NE100%288m1004hPa100%
18-Jun-2024 06:00Heavy Intensity Rain24°C2 mph, NW100%1513m1003hPa99%
18-Jun-2024 09:00Moderate Rain24°C2 mph, NE100%10000m1001hPa98%
18-Jun-2024 12:00Moderate Rain24°C2 mph, NE100%10000m1000hPa97%
18-Jun-2024 15:00Light Rain24°C4 mph, N100%10000m1002hPa95%
18-Jun-2024 18:00Moderate Rain23°C4 mph, N99%10000m1003hPa97%
18-Jun-2024 21:00Light Rain23°C2 mph, NE99%10000m1002hPa96%
19-Jun-2024 00:00Light Rain23°C2 mph, NE98%10000m1002hPa96%
19-Jun-2024 03:00Moderate Rain25°C2 mph, S97%3647m1002hPa94%
19-Jun-2024 06:00Moderate Rain24°C2 mph, S99%285m1003hPa100%
19-Jun-2024 09:00Moderate Rain24°C2 mph, SE100%8320m1001hPa99%
19-Jun-2024 12:00Light Rain24°C2 mph, E100%8909m1001hPa99%
19-Jun-2024 15:00Light Rain24°C0 mph, E100%3359m1002hPa98%
19-Jun-2024 18:00Moderate Rain24°C0 mph, NE100%3037m1003hPa99%
19-Jun-2024 21:00Moderate Rain24°C2 mph, S100%2868m1000hPa100%
20-Jun-2024 00:00Heavy Intensity Rain24°C2 mph, N100%0m1000hPa100%
20-Jun-2024 03:00Very Heavy Rain24°C2 mph, NE100%1429m1002hPa99%
20-Jun-2024 06:00Heavy Intensity Rain24°C2 mph, E100%2511m1002hPa98%
20-Jun-2024 09:00Moderate Rain24°C0 mph, SW100%1242m1002hPa100%
20-Jun-2024 12:00Light Rain24°C2 mph, E100%10000m1002hPa98%
20-Jun-2024 15:00Overcast Clouds24°C0 mph, E100%10000m1004hPa98%
20-Jun-2024 18:00Light Rain23°C0 mph, NW100%10000m1003hPa98%
20-Jun-2024 21:00Light Rain23°C0 mph, E100%8493m1002hPa98%
21-Jun-2024 00:00Moderate Rain23°C2 mph, N100%0m1002hPa99%
21-Jun-2024 03:00Heavy Intensity Rain24°C2 mph, SE100%261m1004hPa98%
21-Jun-2024 06:00Light Rain24°C2 mph, S100%1464m1003hPa97%
21-Jun-2024 09:00Moderate Rain24°C0 mph, S100%2753m1002hPa99%
21-Jun-2024 12:00Light Rain24°C0 mph, NE100%8376m1002hPa99%
21-Jun-2024 15:00Light Rain24°C0 mph, E100%10000m1004hPa98%
21-Jun-2024 18:00Light Rain24°C0 mph, SW100%4534m1004hPa99%
21-Jun-2024 21:00Moderate Rain24°C2 mph, N100%5899m1002hPa99%
22-Jun-2024 00:00Heavy Intensity Rain24°C0 mph, NE100%1909m1003hPa100%
22-Jun-2024 03:00Moderate Rain24°C0 mph, S100%2263m1004hPa99%